Theta_e
293 293 293 295 295 293 292 292 291 291 292 288 286 285 284 287 282 282 290 298 297 300 303 304 305 306 305 305 305 305 306 306 305 305 304 305 305 306 306 307 306 306 307 308 307 307 308 309 308 307 307 306 306 305 306 306 308 310 311 310 309 309 308 307 307 307 306 306 306 305 305 304 303 303 302 301 301 301 301 301 302 302 303 303 303 303 303
292 292 292 294 294 291 291 291 291 291 291 288 287 286 286 287 283 285 296 297 298 301 304 306 306 307 306 305 306 305 304 304 304 304 304 304 304 305 305 306 306 308 308 308 307 308 308 308 307 306 305 305 305 305 305 305 307 310 310 309 309 308 307 306 307 307 306 306 305 304 303 302 301 301 300 300 300 299 300 301 301 302 302 303 303 302 301
289 291 290 291 292 291 289 289 290 291 290 291 289 289 290 293 292 292 296 297 295 300 306 305 307 306 306 305 304 304 304 304 304 304 303 303 303 303 304 306 307 307 308 308 307 308 308 308 307 305 304 304 304 304 304 305 307 309 310 309 308 307 306 306 306 306 305 304 303 302 301 300 299 299 299 299 298 298 299 299 299 300 300 300 301 301 301
285 289 288 287 289 290 288 286 290 290 290 290 291 289 291 292 292 294 295 293 293 300 304 304 304 304 303 302 303 303 303 304 304 303 303 303 302 302 304 306 307 306 307 306 307 307 307 307 306 305 304 304 304 304 305 305 307 309 308 307 306 306 306 306 305 304 303 302 300 299 299 298 298 298 298 297 297 297 297 297 298 298 298 298 299 300 300
281 287 287 286 282 284 282 283 288 289 291 292 293 294 294 295 298 293 289 293 300 302 303 301 301 303 303 303 303 302 303 304 304 303 303 303 303 303 305 305 306 306 306 306 307 307 306 306 305 305 305 304 303 304 305 306 307 307 306 306 305 305 305 305 305 304 303 302 300 299 298 297 297 297 296 296 296 296 296 297 297 297 297 297 297 298 298
282 286 284 283 280 275 275 283 289 292 293 291 291 293 293 296 295 294 295 297 302 302 302 301 300 301 302 303 304 305 304 303 302 303 303 303 304 304 303 302 301 303 305 306 307 306 306 306 306 305 305 304 304 304 305 306 306 305 305 304 304 303 304 304 304 303 303 302 301 299 298 297 296 296 295 295 295 295 296 296 295 296 296 296 296 296 297
283 281 283 280 278 274 285 288 290 294 294 293 295 296 295 293 292 293 297 300 301 303 304 303 303 304 304 305 304 304 306 304 303 302 303 303 301 301 300 301 302 303 305 305 305 305 305 305 305 304 303 304 304 304 304 304 304 303 303 302 302 301 301 302 302 302 301 300 299 298 297 296 295 294 294 294 294 294 294 294 294 294 295 295 296 296 296
279 279 279 276 273 283 288 290 293 294 294 293 295 294 295 294 293 294 297 301 303 303 302 303 304 303 304 304 305 305 304 304 304 303 301 300 299 299 300 301 302 304 305 304 304 304 306 305 304 304 303 303 303 302 303 302 301 301 301 300 299 299 299 299 300 300 299 297 296 295 295 294 294 293 293 293 293 294 294 294 294 294 295 295 295 295 295
279 277 271 277 281 285 289 293 293 291 288 290 286 285 289 293 296 297 299 301 302 302 302 302 303 303 303 300 299 302 303 304 304 303 301 300 300 300 300 302 304 306 306 305 305 305 304 304 303 302 302 302 301 301 301 300 300 299 299 298 298 298 297 298 298 297 296 295 295 294 294 294 293 293 293 293 293 294 293 293 293 293 293 294 294 294 295
279 279 276 274 275 276 280 288 290 292 293 292 291 290 287 296 297 300 302 301 301 301 301 301 301 302 299 295 296 301 304 304 302 301 301 301 301 300 301 303 305 305 305 305 305 304 303 302 302 302 301 301 300 300 299 299 298 297 297 296 297 296 295 295 294 294 294 294 294 294 293 293 293 293 293 293 293 294 292 292 292 292 292 292 292 293 293
279 276 275 273 274 275 278 286 290 295 295 294 289 288 286 291 299 302 302 301 301 301 300 300 301 299 295 294 297 301 302 301 301 300 300 301 301 301 302 303 303 304 304 304 304 303 302 301 301 301 300 300 299 298 298 297 296 294 294 294 294 293 293 293 293 293 293 293 293 293 293 292 292 292 292 292 292 292 292 292 291 291 292 290 290 290 291
275 274 275 277 273 278 289 286 290 295 295 292 289 281 281 293 300 302 302 301 301 301 301 301 301 299 294 295 298 301 301 301 301 300 300 299 299 300 302 303 304 304 304 303 302 301 300 300 300 299 298 298 297 296 295 295 294 294 293 293 293 292 292 292 292 293 293 294 293 293 292 292 292 292 292 291 291 291 291 290 290 290 290 289 289 289 289
276 277 273 273 277 283 285 290 292 294 295 290 280 279 281 294 301 303 303 302 302 302 301 302 299 296 297 299 301 301 301 299 299 299 300 300 300 300 301 302 302 303 303 303 301 300 300 299 299 298 298 297 296 295 295 294 293 293 293 292 292 291 291 292 292 292 292 292 292 292 292 292 293 292 291 290 290 290 290 289 289 289 289 289 288 288 288
280 272 277 278 274 281 288 290 295 296 292 284 283 286 289 300 302 304 303 302 302 302 301 301 297 297 300 300 299 298 298 298 298 299 299 299 300 301 302 302 302 302 301 300 300 299 299 299 298 298 297 296 295 295 294 293 292 292 292 291 291 291 291 291 291 291 291 292 293 293 293 293 292 291 291 291 291 289 289 289 288 288 288 288 288 288 288
276 270 274 276 278 285 294 295 294 295 286 285 286 290 296 302 303 303 302 302 302 302 298 297 298 298 298 297 296 297 297 297 297 297 298 298 298 299 300 301 301 301 300 299 299 298 298 298 298 298 297 296 295 294 292 292 292 292 292 291 291 291 291 291 291 290 290 291 292 293 292 292 291 290 290 290 289 289 289 288 288 288 287 287 288 288 288
280 274 278 277 280 286 292 295 289 290 289 291 293 297 297 298 302 302 302 301 301 300 298 297 297 297 296 296 296 296 296 297 297 297 298 298 299 300 301 301 301 301 299 299 298 298 298 298 298 297 296 294 293 292 291 292 292 292 292 291 291 291 291 290 290 290 290 290 290 290 291 291 290 289 289 289 289 289 288 288 288 287 287 287 287 287 287
281 280 278 281 286 288 290 293 293 291 293 295 296 297 300 300 301 303 300 297 297 298 298 298 297 296 296 295 296 295 295 296 296 296 296 297 298 298 299 299 299 299 298 297 297 297 297 297 296 296 295 294 293 291 291 293 292 292 291 291 290 290 289 289 289 289 289 289 289 289 288 289 289 289 288 288 288 287 288 287 287 287 286 286 286 286 286
291 291 289 289 289 290 291 292 293 294 295 294 295 296 297 299 301 301 299 297 298 298 298 297 296 296 295 295 295 295 295 295 295 296 296 297 297 297 297 298 298 299 298 297 296 295 295 295 295 295 295 294 292 292 293 293 292 292 291 291 290 289 289 289 289 289 288 288 288 288 288 288 288 287 288 288 288 287 287 287 286 286 286 286 286 286 286
287 281 288 289 289 290 292 292 294 294 293 293 295 295 293 295 298 298 299 299 298 298 298 297 296 295 296 295 295 295 295 295 295 295 295 295 296 296 296 297 297 297 297 295 294 294 293 293 294 294 293 293 293 293 293 292 292 292 291 291 290 289 289 288 288 288 287 287 287 287 286 287 287 287 287 286 288 287 286 286 286 286 286 286 286 286 286
282 282 289 290 291 290 292 291 291 292 293 295 296 296 297 297 298 299 299 299 298 299 298 297 296 296 296 295 295 295 295 295 295 294 294 294 295 296 296 295 297 296 295 294 294 293 293 293 293 293 292 292 292 292 292 292 292 292 291 290 289 289 288 288 288 287 287 286 287 286 285 286 286 286 286 286 286 285 285 286 286 285 286 286 285 285 284
292 294 292 291 291 292 292 293 292 293 294 295 296 298 298 299 299 299 299 300 299 299 297 297 297 296 296 296 295 295 295 295 294 294 294 294 294 294 295 295 295 295 294 293 293 293 292 292 292 292 291 291 292 292 292 292 292 291 291 290 289 288 288 288 287 288 287 287 286 286 285 285 284 284 284 286 286 285 284 284 285 286 286 285 285 283 283
287 288 290 293 288 287 289 291 293 293 295 296 296 297 298 298 298 299 298 298 298 298 298 298 297 296 295 295 295 294 295 295 294 294 294 294 294 294 294 295 294 294 294 293 293 292 292 292 292 292 292 292 292 293 293 292 292 291 291 290 289 288 287 287 287 287 287 286 286 287 286 286 286 287 287 289 287 286 285 289 289 289 288 285 285 285 286
287 292 294 292 292 291 291 292 293 295 296 297 296 296 296 297 299 299 297 296 296 296 297 298 297 296 295 295 295 295 295 295 295 295 295 295 295 294 294 294 293 293 293 293 292 292 291 292 292 292 292 292 292 293 293 293 293 292 291 290 288 287 287 286 287 287 286 286 286 286 286 285 286 286 286 288 288 289 289 289 289 289 289 289 289 289 289
293 295 295 293 292 291 292 293 293 295 296 297 296 296 296 297 298 298 298 297 296 295 296 297 297 297 296 296 296 295 295 296 295 295 296 296 295 295 295 294 293 292 292 292 292 291 292 292 292 292 292 292 292 292 293 293 292 291 291 290 288 287 287 286 287 286 285 286 286 286 284 285 286 286 286 286 287 289 289 289 289 289 289 289 289 289 289
291 295 294 293 293 294 294 293 293 293 295 296 295 295 295 296 297 298 297 297 297 296 295 295 296 297 297 297 297 296 296 296 296 296 295 295 295 295 295 294 294 293 293 293 292 292 292 292 292 292 291 291 292 292 292 292 292 291 290 290 288 287 287 287 286 286 286 286 286 287 286 285 285 285 285 284 285 285 288 289 289 289 289 289 289 289 289
296 294 295 295 295 294 294 295 294 294 294 296 296 296 297 298 297 297 296 296 296 297 296 296 296 297 298 297 297 297 297 296 295 295 296 296 296 295 295 294 294 294 293 293 293 292 292 292 291 291 291 290 291 292 292 292 292 291 290 290 289 288 288 287 287 287 287 287 287 285 285 284 283 284 282 285 283 284 285 284 288 289 289 289 289 289 289
296 296 296 294 292 291 291 291 290 293 296 297 297 296 297 297 297 296 296 296 296 297 297 297 297 297 298 298 297 297 296 295 296 297 296 296 296 296 295 295 294 294 293 293 292 292 291 291 291 291 290 290 291 292 292 292 291 290 290 290 289 287 286 286 287 287 286 285 284 284 284 284 283 283 283 282 282 284 284 284 284 283 284 286 287 289 287
295 294 295 292 289 291 289 291 293 295 297 296 296 296 296 296 296 295 294 294 295 295 296 297 297 297 296 297 297 295 295 296 296 296 296 296 296 296 296 295 294 293 293 292 291 291 291 291 290 290 290 290 291 292 292 292 291 290 290 290 289 287 288 288 287 286 286 287 285 286 285 284 283 283 282 282 283 283 282 284 284 283 284 284 284 288 289
292 293 294 294 293 292 293 295 295 295 295 296 296 296 296 295 294 294 294 294 294 295 295 296 297 297 296 296 296 295 295 296 295 295 295 296 295 295 295 294 293 293 293 292 292 292 292 291 291 290 290 290 291 292 292 292 291 290 289 289 288 287 286 287 286 287 286 285 285 286 285 283 283 283 282 282 282 282 282 283 282 282 284 284 284 287 287
292 294 294 293 294 294 294 293 294 294 295 295 295 294 295 294 293 293 293 294 294 294 295 296 296 295 295 295 295 295 295 295 295 295 295 295 295 295 294 294 293 292 292 292 291 291 291 292 291 290 290 289 291 291 291 291 290 290 289 289 288 287 287 286 286 286 286 286 284 284 284 284 283 283 282 282 282 282 283 283 282 282 282 283 286 284 284
292 293 293 293 293 293 293 293 294 294 295 295 295 294 294 294 293 292 293 293 294 294 294 295 294 294 294 295 295 296 296 295 295 295 295 295 294 294 294 294 292 290 290 291 292 292 291 291 291 290 289 289 290 291 291 290 289 289 288 288 287 285 285 285 285 286 285 284 284 285 284 284 283 283 283 282 282 282 281 281 281 281 280 281 281 282 284
292 292 293 293 293 292 292 292 292 293 293 294 293 292 292 292 292 292 292 292 293 294 294 294 293 293 294 295 295 295 295 295 295 294 294 294 294 294 294 294 293 291 292 292 292 291 291 290 290 289 289 289 290 290 290 289 289 289 288 286 286 285 285 284 285 285 285 284 284 285 283 285 283 282 282 282 283 282 281 281 281 280 280 281 282 282 283
291 290 290 290 290 292 292 292 292 291 292 293 293 293 292 292 293 293 293 293 293 293 293 293 294 294 294 295 295 295 295 295 294 294 294 294 294 294 293 293 293 293 292 292 292 292 292 291 290 288 288 289 290 290 290 290 289 288 287 286 286 285 284 285 285 285 284 284 285 284 284 284 284 283 284 283 283 282 281 281 280 280 281 281 282 283 282
293 292 292 292 292 291 291 291 291 291 292 293 293 293 293 292 292 292 292 292 292 292 293 293 294 294 295 295 295 294 294 293 292 292 293 293 293 292 292 292 292 292 292 291 291 291 291 291 289 288 289 289 290 290 290 289 288 288 287 286 286 285 285 284 285 285 284 284 284 284 284 284 284 284 284 283 282 282 282 281 280 280 280 281 279 279 281
293 292 292 292 293 293 293 292 291 291 291 291 292 293 293 293 292 292 292 292 291 291 292 294 294 295 295 294 294 293 292 291 291 292 292 292 290 290 291 291 291 291 290 290 291 290 290 290 290 289 289 289 290 290 290 289 289 288 287 287 287 286 286 285 285 285 285 284 283 284 284 284 283 284 283 283 283 283 282 282 282 281 280 282 282 281 281
294 294 293 293 292 293 293 293 292 292 292 291 291 291 291 291 291 290 291 291 292 292 293 293 294 294 294 293 290 288 288 288 289 289 289 288 289 290 291 291 291 290 290 289 290 289 288 289 287 287 289 289 289 289 289 289 288 288 287 286 286 286 286 286 286 285 285 284 285 284 284 284 284 282 282 283 283 283 283 282 282 283 282 283 282 281 281
297 295 294 293 293 293 292 291 292 292 292 291 291 290 290 290 290 290 290 291 292 292 293 293 293 292 290 289 288 288 288 288 289 289 288 288 289 291 291 291 291 290 290 289 288 287 289 289 286 287 288 288 288 288 287 286 287 286 286 286 286 286 286 285 284 285 285 283 285 286 284 283 282 282 282 282 282 282 281 282 282 282 282 281 280 281 281
295 295 293 293 294 293 292 291 291 292 291 291 291 291 291 291 291 292 292 292 292 292 292 293 292 291 290 289 289 288 288 288 288 288 288 289 291 291 291 290 289 289 289 289 286 287 288 288 286 287 288 288 287 287 286 285 285 286 286 286 286 286 286 285 285 284 284 284 283 284 283 283 283 284 284 282 282 281 281 281 281 281 281 281 280 281 281
292 294 294 294 294 293 292 292 292 292 293 292 291 291 291 292 292 293 292 292 292 292 292 291 290 290 291 291 291 290 290 288 288 288 289 289 291 291 289 290 290 289 288 286 288 288 288 287 288 289 288 288 287 286 285 284 285 287 286 287 287 286 286 285 286 286 287 285 283 283 283 282 282 284 283 284 282 281 281 281 280 280 281 281 282 282 282
292 294 294 294 293 292 292 291 293 294 294 294 293 291 290 291 291 291 290 290 290 291 291 291 291 290 290 291 290 290 290 290 290 290 290 290 290 290 289 289 289 287 287 287 289 287 287 286 288 289 289 288 288 286 286 286 286 286 286 287 287 286 285 285 286 285 286 283 285 284 283 283 283 283 283 283 283 283 282 282 282 282 282 282 283 282 282
292 292 293 292 291 292 292 292 292 292 293 293 293 292 291 291 290 289 289 289 289 291 292 292 292 291 291 291 291 291 290 290 291 291 291 290 290 289 288 288 288 286 288 290 288 288 287 287 289 289 289 288 287 286 285 285 286 286 286 287 288 287 285 285 285 286 285 284 285 284 284 285 283 282 282 284 283 283 283 282 283 284 284 283 283 283 283
292 292 292 292 292 292 291 292 292 292 292 292 292 292 292 291 291 291 290 290 290 291 292 293 291 292 292 292 291 291 291 291 291 291 291 291 289 288 288 289 288 288 288 288 287 287 287 287 287 287 287 287 286 285 285 285 285 286 286 286 286 287 287 286 286 286 285 285 284 284 284 283 283 284 283 283 283 283 283 283 282 283 283 283 284 284 283
292 292 291 291 291 291 292 292 292 292 292 292 292 292 292 292 292 292 292 291 292 292 292 292 290 290 291 291 291 291 291 291 291 291 291 291 291 291 291 290 289 289 286 287 288 287 288 288 288 286 286 287 286 285 284 284 285 285 284 284 285 285 286 286 287 286 284 284 283 283 284 283 283 284 283 283 283 283 284 284 284 284 284 283 284 283 283
292 293 292 291 291 291 292 292 292 292 291 291 292 292 292 292 292 292 292 292 292 292 292 291 292 292 291 291 291 290 290 290 291 291 290 288 289 288 288 289 290 288 286 286 286 288 286 287 287 286 284 285 285 284 285 284 284 285 285 283 283 284 285 286 285 284 284 284 284 284 285 284 285 284 285 283 282 283 284 284 283 283 284 283 283 283 283
290 289 290 291 291 291 291 292 292 292 292 292 292 291 291 291 291 292 292 292 291 291 291 292 291 291 291 291 291 292 292 292 292 291 289 287 286 288 287 288 289 288 287 286 287 287 287 286 286 285 285 285 284 284 285 285 285 285 285 284 285 283 283 285 285 286 285 285 285 285 285 284 285 285 284 284 284 284 284 284 284 284 283 284 283 284 284
288 289 289 288 291 290 291 292 293 293 293 292 291 290 290 291 290 290 291 291 291 291 292 292 292 292 292 292 291 291 291 291 290 291 292 291 290 290 288 287 288 286 286 285 286 286 287 286 286 285 285 285 284 285 284 285 284 285 284 284 284 283 283 283 283 284 284 285 285 285 285 285 285 284 284 284 284 285 285 285 284 284 283 284 285 285 286
288 289 289 289 290 290 291 292 293 293 292 291 290 290 290 290 290 290 291 291 292 292 292 293 293 293 293 292 291 289 287 287 288 288 288 286 285 287 287 287 287 286 285 286 285 286 286 287 286 285 286 285 284 284 284 284 285 284 285 285 283 283 283 284 283 285 283 283 285 285 285 285 286 285 285 285 285 285 285 285 284 284 284 284 284 285 285
288 289 289 289 289 289 290 290 291 291 291 291 291 291 291 291 290 289 289 290 290 290 290 290 291 290 289 290 291 292 292 291 288 288 287 286 285 286 285 285 286 286 287 285 285 285 285 286 286 286 286 285 285 283 283 284 284 284 284 284 284 283 282 283 283 282 283 284 285 284 283 283 284 284 284 285 285 285 285 285 286 285 284 284 284 285 285
289 289 288 288 287 287 288 288 287 286 288 289 289 289 290 289 288 287 287 287 288 287 288 288 288 289 289 289 289 289 289 291 292 290 289 288 286 285 285 285 285 285 286 286 286 284 285 285 286 286 286 285 285 285 283 284 285 284 284 284 284 284 284 283 283 283 283 284 284 285 285 285 285 285 285 285 285 285 284 284 285 285 285 285 285 285 285
288 288 288 287 287 287 287 286 285 286 287 287 287 286 286 286 284 284 284 285 285 285 285 285 286 287 288 287 287 288 288 288 289 288 288 288 287 287 285 285 285 285 286 287 287 286 284 284 285 285 286 286 285 285 284 285 284 285 284 285 285 284 285 285 285 284 284 284 284 284 284 285 285 286 286 285 285 285 285 285 285 285 285 285 284 285 285
288 288 288 287 287 288 288 288 288 287 286 287 286 285 285 286 286 284 284 284 283 283 283 283 283 284 285 285 285 286 286 286 287 287 287 287 287 286 285 285 285 285 286 287 287 287 285 284 284 285 286 285 285 284 284 285 284 285 284 284 285 284 284 285 284 285 285 284 284 284 285 284 285 285 285 285 285 285 285 285 285 284 285 285 285 285 285
289 289 288 288 287 287 288 287 287 286 286 285 284 284 284 285 284 283 282 284 285 284 283 283 281 282 283 283 284 284 283 285 285 285 285 284 285 284 285 285 285 284 284 286 286 286 286 285 284 284 284 285 285 285 285 285 284 284 284 284 284 284 285 285 285 285 285 285 285 285 285 285 284 285 285 284 285 285 285 285 285 285 284 284 285 285 285
Wind_Speed
4 4 1 7 8 4 4 5 3 3 1 6 8 7 4 8 5 8 7 11 12 13 17 18 19 20 20 17 14 11 12 11 10 11 11 10 9 9 9 9 7 7 8 6 6 8 9 9 9 7 6 6 6 6 5 5 5 6 6 7 8 8 8 8 8 7 7 7 7 7 8 8 9 9 8 7 7 7 8 8 8 8 8 7 10 9 10
5 7 5 4 13 4 6 6 4 2 2 3 4 3 4 7 3 5 12 11 5 3 10 12 11 8 12 12 12 11 13 13 12 11 11 11 10 10 10 9 8 7 8 7 8 10 10 10 8 7 7 6 6 7 5 5 6 6 7 8 8 8 8 8 7 7 7 7 7 8 9 9 8 7 7 7 7 8 8 8 8 7 9 8 9 10 10
2 5 6 4 8 8 7 4 5 5 4 6 4 3 3 7 6 4 11 10 3 2 6 8 10 10 11 12 14 14 13 13 14 13 12 11 11 10 9 9 8 7 6 8 11 11 10 10 8 7 7 6 7 7 6 6 6 7 8 7 7 7 8 7 7 7 8 8 8 8 7 7 6 7 7 6 7 8 8 8 8 9 8 10 10 9 11
0 2 2 3 9 11 8 4 5 5 3 4 1 2 2 6 8 11 11 6 4 4 10 9 11 13 15 16 15 14 13 14 14 14 13 12 10 9 8 7 7 6 6 10 11 11 10 10 9 8 8 7 7 6 6 6 6 8 8 8 7 8 7 7 8 8 7 7 7 7 7 7 7 7 6 7 8 7 8 9 9 8 10 10 10 10 10
3 2 1 2 2 4 3 2 1 0 2 1 2 1 1 3 16 12 9 11 8 12 14 15 12 14 13 14 14 13 13 12 13 13 12 11 10 8 8 7 5 5 9 11 11 11 9 9 8 7 8 9 7 6 7 6 8 9 8 7 7 7 7 7 7 7 6 7 7 7 7 6 6 6 7 8 8 9 10 7 7 11 10 11 11 10 11
3 2 3 1 1 2 4 2 2 3 3 4 3 1 1 6 4 6 3 4 12 12 12 17 17 19 19 16 11 12 13 11 9 8 9 9 9 7 6 6 5 7 9 10 10 11 9 8 9 8 7 8 7 6 7 8 9 8 8 7 7 7 7 7 7 6 7 8 8 7 6 6 6 7 8 9 8 7 6 7 9 10 11 12 11 11 11
5 1 1 2 7 6 2 3 3 4 3 4 4 4 2 1 1 2 6 12 17 16 13 11 9 10 12 14 16 12 13 15 13 13 10 9 8 8 8 8 9 11 12 12 12 11 10 10 8 9 8 8 8 8 8 9 8 8 7 7 7 6 6 6 6 6 7 7 8 7 6 6 7 8 8 7 8 7 7 8 9 10 10 11 10 10 10
2 2 1 5 3 3 3 2 0 2 4 1 6 4 1 1 1 6 7 8 10 11 11 11 9 10 10 10 10 13 9 9 13 14 10 9 9 9 7 10 12 14 14 14 12 10 8 9 8 8 8 7 9 8 9 9 8 7 7 7 7 6 7 6 7 7 7 7 7 6 6 6 8 8 8 7 7 6 7 8 7 8 9 9 10 10 10
5 3 2 3 2 2 1 1 1 5 4 5 3 5 5 2 0 5 10 10 11 12 12 13 13 12 11 8 3 2 7 7 5 9 10 10 9 7 6 10 12 14 14 13 12 11 8 8 9 8 8 9 9 9 9 8 7 7 8 8 7 7 7 7 7 6 5 6 6 6 6 7 8 8 7 7 7 5 8 8 9 10 9 9 8 10 11
4 5 3 2 1 2 5 7 2 1 1 3 3 6 1 3 2 5 14 14 13 15 14 15 14 13 12 8 6 6 7 8 12 10 8 9 9 9 9 10 12 12 12 12 11 12 11 9 8 8 8 10 10 10 9 8 8 7 7 7 6 6 6 5 5 5 4 5 5 5 6 8 7 6 6 6 6 6 8 8 10 8 6 8 9 9 10
3 3 5 3 4 4 4 5 2 1 3 5 3 3 4 3 7 9 15 16 16 19 21 18 16 14 14 12 9 8 9 11 13 14 10 11 11 12 12 14 14 13 13 13 12 11 12 11 7 8 9 11 11 10 8 7 6 7 6 5 5 5 5 5 5 5 5 6 5 6 6 6 5 6 6 6 5 6 7 7 7 6 7 8 8 9 9
1 5 3 2 3 1 0 4 1 2 4 3 2 1 6 9 11 13 16 19 18 16 16 19 18 18 17 15 12 9 11 14 13 15 14 12 11 11 11 11 12 13 14 14 12 11 11 10 9 9 9 10 10 9 8 6 7 6 5 5 4 5 5 6 5 6 6 7 6 6 7 6 6 6 4 6 7 7 6 6 6 6 7 8 9 8 8
2 5 0 2 4 4 3 2 4 2 2 3 3 7 3 7 13 14 15 17 17 16 18 17 16 3 4 8 12 12 12 12 8 6 8 10 12 13 12 12 13 12 11 13 13 12 10 11 9 9 10 11 10 8 7 7 6 5 4 4 5 6 6 7 7 7 6 6 7 6 6 6 5 6 6 6 6 7 7 6 7 8 8 7 8 8 8
4 3 5 5 3 5 5 1 2 2 3 3 7 6 1 9 10 11 14 17 17 16 16 10 6 8 14 14 12 13 13 14 11 9 10 11 10 10 12 13 13 12 11 11 12 11 9 11 10 10 10 11 9 8 8 7 5 4 5 6 6 7 8 7 7 7 6 6 6 6 6 6 8 8 6 6 6 6 6 7 8 8 6 7 7 8 8
4 3 3 2 2 1 5 6 2 1 3 5 4 0 1 6 9 11 11 13 13 14 9 7 14 16 18 17 14 13 12 14 13 12 13 13 12 12 12 10 10 14 12 12 12 11 9 9 9 9 11 11 9 8 9 6 5 6 6 6 7 7 8 8 7 7 6 7 6 6 6 6 7 8 6 7 6 6 6 7 8 8 7 6 7 8 8
6 3 4 4 3 3 3 6 7 4 4 2 4 4 6 3 7 8 8 7 9 9 12 14 15 18 19 16 14 13 12 13 13 11 13 14 13 12 12 13 12 14 13 11 11 9 9 9 8 8 11 11 10 10 8 5 6 6 7 7 8 8 8 7 7 7 7 7 6 6 6 6 7 8 7 6 7 6 6 7 7 8 7 7 7 8 8
3 4 4 1 2 3 2 0 1 1 2 0 1 1 8 10 6 6 8 7 8 11 12 13 15 16 18 18 17 16 13 13 13 13 13 14 14 13 13 13 13 13 15 14 12 10 8 8 7 7 8 13 12 11 6 6 7 8 8 8 9 8 8 7 7 6 7 7 7 6 6 6 8 7 6 5 8 6 6 7 7 7 7 6 7 6 7
1 0 2 1 2 2 3 3 2 1 2 4 4 4 5 1 6 8 11 9 11 11 14 16 11 14 16 18 14 14 13 14 13 13 12 12 12 12 12 11 12 13 13 13 13 12 8 8 8 7 8 11 14 10 8 8 7 8 9 10 9 8 8 7 7 7 9 8 7 7 7 6 6 5 5 6 7 6 7 7 6 7 6 6 6 6 7
2 1 2 3 1 1 3 3 3 4 3 1 2 7 3 4 5 7 8 11 12 13 13 17 16 15 16 16 14 14 12 13 14 13 13 12 13 14 13 12 13 13 13 13 12 13 11 7 9 8 8 7 9 9 10 8 8 8 9 10 9 8 8 7 6 7 8 7 7 7 6 6 6 6 6 6 7 7 7 7 6 6 6 6 7 7 7
2 1 0 1 1 2 2 2 2 3 4 5 5 4 6 7 7 7 8 10 11 11 12 15 18 16 15 18 15 13 12 12 12 13 13 12 11 10 12 11 13 12 13 13 13 12 11 8 8 9 8 9 8 9 8 8 8 9 9 9 10 8 8 6 6 6 7 8 9 7 6 6 7 6 6 5 7 6 6 6 7 6 6 6 6 6 6
1 2 2 2 3 5 4 3 3 2 4 7 6 7 8 10 13 10 7 6 11 12 14 14 18 18 14 16 17 16 13 12 11 11 12 11 12 12 12 11 13 13 12 13 12 12 10 7 9 9 9 8 8 9 8 7 8 10 10 9 9 8 6 7 6 5 6 6 7 7 7 6 5 4 6 6 6 5 2 0 1 4 6 4 3 3 4
2 5 6 6 5 2 1 1 1 3 3 6 7 8 7 9 12 11 12 7 4 10 15 16 16 18 14 13 14 15 14 14 12 12 12 12 12 10 9 9 10 11 11 13 12 11 8 8 9 10 9 8 7 8 8 7 8 11 10 9 8 7 6 6 6 6 6 6 6 7 7 7 7 6 4 5 4 6 5 5 6 6 5 3 2 4 7
6 3 5 2 4 4 1 3 3 3 3 8 10 9 8 5 8 12 14 13 11 8 6 8 16 17 16 13 13 13 12 13 13 13 14 14 12 12 11 11 10 11 10 10 11 10 8 8 9 9 8 8 8 7 7 7 9 10 10 9 7 7 6 6 6 6 6 6 5 6 6 6 6 7 7 6 7 7 6 6 8 9 8 7 8 7 7
1 2 6 4 3 6 3 3 3 3 2 7 7 4 5 8 9 9 13 15 16 10 9 6 8 16 13 13 15 15 12 12 14 12 11 12 12 12 11 12 12 12 11 11 11 10 8 9 9 9 9 7 8 7 7 7 8 9 9 9 8 7 6 5 5 5 5 5 5 6 5 5 6 7 7 7 5 7 7 7 7 8 9 9 9 8 6
2 1 4 3 7 8 6 4 3 3 2 5 8 6 7 7 7 10 12 10 11 16 12 11 6 7 16 12 13 15 14 11 12 14 13 11 11 11 11 12 12 12 11 10 9 8 9 10 9 9 9 7 7 8 8 8 9 9 8 8 8 6 6 5 5 5 5 6 5 6 6 5 5 4 6 7 7 5 5 6 10 11 11 10 11 10 11
8 9 9 7 8 8 6 7 6 4 4 6 6 4 6 9 11 10 12 14 10 10 15 13 12 7 9 14 12 12 13 13 11 12 12 11 9 10 11 12 10 9 9 9 9 9 9 10 10 9 9 7 8 9 8 9 9 9 8 8 9 8 7 6 6 6 6 5 5 4 3 3 4 4 3 4 5 5 7 6 7 8 10 10 9 10 9
7 12 14 11 8 4 2 4 5 3 5 5 9 8 8 9 11 9 9 10 12 11 10 13 14 13 9 9 13 15 17 13 12 10 10 11 10 10 8 8 10 11 11 10 8 9 11 10 9 9 8 7 7 8 8 9 8 8 7 7 7 8 10 8 6 6 5 5 4 4 3 3 3 3 3 2 3 6 6 6 5 5 3 5 7 7 6
6 3 3 8 8 7 3 3 6 6 7 9 9 10 9 10 11 12 11 11 10 9 9 10 13 14 14 11 13 12 12 15 15 13 11 10 8 9 9 11 11 11 10 9 8 8 9 8 9 9 7 5 6 8 9 9 9 8 8 7 7 6 6 7 6 6 6 5 4 5 5 3 2 3 3 3 5 5 4 4 6 4 2 1 1 2 7
3 3 5 5 8 6 6 7 8 8 8 7 8 9 10 11 10 11 10 10 11 11 10 7 7 11 14 13 13 15 14 13 13 14 13 11 10 11 11 11 10 10 10 9 8 8 8 9 9 9 7 5 6 8 9 10 9 9 8 8 7 7 7 6 7 6 5 4 4 4 4 3 3 2 2 3 3 3 3 4 3 2 3 2 2 4 5
5 6 8 9 9 9 10 8 8 8 8 8 10 8 9 11 10 9 10 9 10 11 10 10 9 8 8 10 10 14 15 14 13 11 11 11 11 11 11 10 10 9 9 9 8 8 9 9 10 10 7 5 6 8 9 9 9 8 8 8 8 7 7 6 5 5 5 5 5 5 4 4 3 3 3 3 3 4 4 4 3 4 3 2 3 4 4
5 6 9 9 9 7 9 7 7 8 8 7 9 9 7 9 11 10 9 9 8 9 9 10 10 10 8 10 8 7 9 9 9 10 10 11 11 11 11 12 13 10 9 9 9 8 9 8 9 9 6 5 5 7 9 9 8 7 7 7 6 8 10 10 7 7 6 6 6 6 4 4 4 4 4 4 3 3 3 3 3 3 2 2 2 3 2
9 8 10 8 8 8 6 5 7 7 6 7 8 9 9 10 12 12 10 9 9 11 10 10 10 10 8 9 8 8 9 9 9 9 10 9 10 10 10 10 11 10 10 9 8 8 8 8 8 7 6 6 6 7 8 8 8 8 7 6 7 6 8 9 7 7 7 6 6 6 5 6 4 3 3 4 4 5 4 3 3 2 2 3 2 2 2
10 8 5 5 5 7 8 6 7 7 7 7 6 5 4 5 6 8 8 9 9 8 9 10 9 8 8 8 10 9 9 10 10 10 10 10 9 8 8 8 10 10 9 9 9 8 9 9 8 5 6 6 6 7 7 8 7 8 7 7 7 6 6 6 7 7 6 7 7 7 7 6 6 5 6 6 5 4 3 3 2 2 2 2 2 1 1
14 12 13 12 12 11 11 8 6 7 5 5 6 6 7 6 7 6 6 6 8 8 9 9 8 8 8 9 10 10 10 10 10 9 10 10 9 7 7 8 9 9 8 7 7 7 7 7 7 6 6 6 6 7 7 7 7 7 7 7 7 6 5 5 6 7 7 6 6 7 7 7 6 7 6 4 4 4 4 4 4 3 2 3 3 3 2
3 5 6 5 6 9 9 11 9 8 8 7 6 6 7 8 8 8 7 8 8 6 6 7 8 8 8 8 9 10 10 10 9 11 10 10 8 7 7 8 7 7 7 5 7 7 7 8 8 7 6 6 6 6 7 7 7 7 6 7 7 7 6 6 6 7 7 7 6 6 7 7 7 6 5 5 5 4 5 4 4 4 4 4 4 3 2
5 7 6 5 4 6 7 10 10 10 10 9 8 8 7 7 8 8 9 7 5 6 7 7 8 8 8 9 8 8 9 8 8 7 7 8 8 7 9 10 9 8 8 6 4 6 5 6 9 10 8 6 6 6 7 7 6 7 6 7 7 6 6 6 6 5 5 7 7 7 7 7 6 5 5 5 4 4 5 6 5 5 6 6 4 3 3
5 5 5 6 5 5 5 4 7 9 8 9 8 7 7 7 8 6 6 6 6 7 7 7 8 9 8 7 6 6 6 7 8 8 8 7 7 8 9 9 8 9 8 8 6 3 6 6 9 11 8 7 6 5 5 10 7 6 7 7 6 7 6 5 4 5 5 4 7 7 5 4 4 4 4 4 5 5 5 5 5 5 5 5 3 4 4
5 7 6 5 6 6 5 4 4 6 7 6 5 5 8 7 6 8 7 7 7 7 7 7 7 7 7 7 7 7 7 6 7 8 8 8 9 10 8 8 7 7 8 7 5 5 5 8 10 7 6 7 6 5 6 8 9 7 5 6 6 6 5 5 4 4 4 4 4 5 6 6 5 5 5 4 4 4 3 4 4 4 5 5 4 4 4
4 4 6 6 6 6 7 6 5 5 9 10 7 6 5 7 6 6 6 6 6 7 7 8 8 8 8 9 8 7 7 7 8 9 9 8 7 10 8 8 9 9 8 4 6 6 6 7 6 6 6 6 5 4 6 9 9 7 6 5 5 5 6 5 6 7 6 5 6 5 4 4 4 5 6 5 5 4 4 4 4 3 3 5 6 6 5
5 6 6 7 7 6 7 6 6 6 5 7 10 7 5 7 6 6 6 6 5 7 8 8 9 8 8 10 10 9 8 8 8 9 9 8 7 7 5 2 4 3 5 9 7 6 7 10 8 6 6 5 6 6 6 8 9 7 6 6 6 5 5 5 5 5 5 4 6 4 4 4 5 5 5 5 5 5 4 5 3 3 3 4 5 5 4
6 6 5 6 6 5 7 7 6 5 7 6 7 8 8 8 7 7 7 7 4 6 8 8 8 8 8 10 10 8 7 7 8 9 9 8 8 7 8 8 5 3 6 8 7 7 8 8 6 7 6 6 6 7 7 7 7 7 7 7 7 7 6 6 6 6 6 7 6 5 7 7 5 4 5 5 7 5 5 6 5 5 5 7 6 4 4
6 7 6 6 6 6 7 7 7 6 5 6 8 8 8 9 10 9 7 8 7 6 7 6 8 8 6 7 8 8 8 7 7 7 9 11 10 8 8 8 5 5 7 9 9 8 8 6 6 7 7 6 6 8 8 6 6 7 7 7 7 7 7 7 7 7 7 6 5 5 5 6 7 6 5 5 5 6 6 5 4 5 7 5 5 6 6
8 8 7 7 6 7 8 8 8 8 7 6 7 8 8 8 8 9 8 8 9 7 7 6 8 9 7 8 9 9 8 7 8 8 6 4 8 11 12 8 6 6 9 7 7 7 8 7 7 6 8 8 7 9 8 6 5 7 7 7 7 7 7 7 7 7 6 6 5 5 5 6 7 6 6 7 7 6 7 6 7 7 7 7 7 5 6
6 7 7 8 7 7 8 8 8 8 8 5 6 8 8 7 8 10 9 8 8 8 8 8 9 8 8 8 8 8 7 7 7 7 8 4 1 2 0 6 8 8 10 6 6 7 7 7 6 8 10 10 10 9 7 6 4 5 6 6 7 7 7 7 7 5 6 6 7 7 7 7 7 7 7 7 6 6 6 7 7 7 7 7 7 6 6
5 5 6 7 8 7 8 9 9 8 7 6 5 6 7 7 6 7 9 9 8 8 8 9 9 8 8 8 9 10 9 9 9 9 8 7 7 7 2 4 7 7 8 9 7 7 7 6 7 9 9 9 10 10 7 5 5 6 6 5 5 6 7 8 8 7 7 7 7 7 7 7 7 7 7 7 7 7 7 7 8 7 7 7 7 7 7
5 5 6 8 9 7 7 8 7 8 9 8 6 4 5 7 7 6 7 9 8 7 8 10 10 10 10 9 6 6 5 6 6 7 9 10 10 7 6 7 7 6 10 10 7 7 7 9 10 9 9 9 8 8 6 6 5 5 5 6 6 6 7 6 6 7 7 7 7 7 7 7 7 7 7 7 7 8 8 8 7 7 7 7 7 8 8
6 5 6 6 6 6 6 6 7 9 9 8 8 6 4 6 7 6 6 7 8 7 6 6 8 9 9 10 10 8 7 5 3 1 1 3 4 7 8 9 9 10 9 7 7 7 7 8 9 10 10 10 9 7 6 7 6 6 6 6 5 4 5 5 5 6 7 6 5 5 6 7 8 8 7 7 7 7 7 7 7 7 7 7 7 7 7
6 6 5 5 6 5 6 6 7 8 8 8 6 6 5 6 7 6 4 5 6 6 6 5 5 4 4 4 6 9 10 10 8 6 3 3 3 5 6 6 7 10 11 9 9 7 9 11 12 12 11 10 7 6 6 7 7 6 6 7 6 5 4 4 4 5 6 6 6 5 5 6 7 7 7 7 8 8 7 7 8 8 7 7 7 8 8
6 6 5 4 6 6 6 6 6 6 6 6 7 5 4 4 4 4 4 4 5 5 5 5 4 4 4 5 6 6 5 6 10 8 7 6 6 6 5 6 7 8 7 7 7 6 8 10 11 12 11 9 6 6 6 7 7 7 7 7 7 7 6 6 6 5 6 6 7 7 7 8 7 7 7 8 7 8 7 7 7 7 7 7 7 7 7
5 5 5 6 6 6 6 7 7 6 6 6 7 6 5 5 5 4 4 5 5 5 5 4 5 5 5 5 5 5 6 5 3 2 6 7 6 5 6 6 6 8 9 8 7 7 7 9 9 9 7 6 6 6 6 6 7 7 7 7 7 6 7 7 6 6 6 6 6 6 7 7 7 8 8 7 7 8 7 8 7 9 12 9 8 7 7
6 6 6 6 6 6 6 7 7 6 6 6 5 6 7 7 7 6 6 6 5 5 5 5 4 4 5 5 5 5 4 4 4 4 5 7 6 6 5 5 5 6 6 7 7 8 7 6 7 7 7 7 6 6 6 7 7 7 7 7 7 7 7 6 6 7 7 7 7 7 7 7 7 7 7 8 8 8 8 8 8 8 8 8 8 8 8
7 6 5 5 6 5 5 3 4 5 5 6 6 6 6 6 6 5 4 6 7 7 7 6 6 5 4 5 6 6 4 6 5 4 4 4 5 5 5 5 4 4 6 6 7 7 7 7 6 7 7 7 7 7 6 7 6 7 7 5 6 7 7 7 7 7 6 7 7 7 7 7 7 7 7 7 8 8 8 7 8 8 8 7 8 8 8
Wind_Direction
4 322 43 116 87 76 123 101 102 81 54 150 151 192 174 135 151 202 192 178 170 179 180 174 175 169 166 160 152 142 134 126 127 131 134 139 141 142 142 137 139 142 144 150 124 102 115 117 114 109 100 90 86 80 73 70 69 72 78 76 72 68 66 64 59 61 62 57 54 47 42 43 44 40 38 35 33 32 34 33 28 19 13 10 19 17 18
7 342 352 63 104 135 62 44 33 26 76 172 136 117 172 146 156 188 151 182 179 206 193 171 156 130 127 130 127 131 136 140 139 139 145 148 148 148 148 144 150 152 151 145 112 121 124 120 118 111 100 91 87 87 77 70 75 74 78 74 75 75 73 71 68 65 65 63 57 53 46 44 41 37 36 33 35 36 36 34 30 21 31 22 25 22 18
332 342 343 41 83 89 82 22 33 54 61 66 44 95 108 85 53 110 130 147 177 291 130 132 127 121 121 126 142 146 144 143 146 148 152 154 154 159 153 143 149 147 156 118 123 130 127 122 119 111 105 97 89 80 75 73 73 78 76 74 73 76 74 69 70 67 64 62 57 53 47 44 38 38 36 36 37 36 35 33 33 33 33 31 27 23 25
312 313 27 29 79 78 82 43 29 28 58 87 343 99 216 123 140 125 119 126 189 183 127 123 130 138 145 149 150 148 153 153 150 153 158 158 156 153 151 151 148 156 139 123 133 132 127 125 124 119 108 97 88 84 78 75 75 74 74 74 77 76 75 74 72 71 69 70 65 57 53 48 44 42 39 41 41 36 37 34 29 32 38 35 34 30 30
234 251 283 248 76 78 53 358 284 229 356 63 98 346 113 193 137 119 138 214 176 153 143 136 150 152 151 149 154 147 150 154 152 154 158 157 153 152 154 147 155 153 131 133 131 126 126 126 118 109 108 99 93 92 85 83 82 80 81 79 77 76 72 70 71 71 74 74 69 63 56 51 48 48 46 47 41 37 37 28 31 40 34 36 34 31 33
239 274 328 2 58 209 228 235 164 155 172 184 132 145 157 135 113 183 193 138 122 141 148 153 157 164 172 162 154 145 142 143 153 156 155 152 143 138 136 134 121 109 116 120 125 124 121 117 110 106 96 99 97 91 90 85 83 83 85 80 75 74 71 70 70 65 66 71 70 66 60 55 53 52 51 48 42 36 36 34 41 40 36 38 35 33 33
196 279 35 131 218 230 239 266 243 196 210 202 133 104 57 4 57 108 116 142 155 168 163 157 155 139 131 136 139 157 161 155 157 157 153 147 144 138 133 124 123 123 121 118 117 118 121 119 115 107 97 95 97 89 88 85 81 85 86 84 78 73 71 68 69 67 65 65 67 63 58 55 55 53 49 46 42 32 36 39 40 40 34 37 35 35 33
60 58 90 190 236 239 289 278 260 176 132 201 100 60 343 344 220 155 134 147 141 135 122 121 122 123 117 120 143 153 159 159 151 151 152 144 135 134 140 129 131 129 129 128 126 123 123 116 110 104 104 102 96 92 87 87 90 90 91 85 80 75 73 69 69 66 67 67 65 61 59 57 57 54 50 44 42 29 44 45 45 45 41 40 36 34 33
146 167 125 212 338 328 340 336 219 178 177 192 158 157 234 267 231 143 135 136 135 124 121 121 123 119 111 103 57 107 143 142 119 126 127 130 123 115 122 129 132 132 130 126 126 121 117 114 111 107 106 102 99 93 90 88 88 89 87 85 82 78 74 68 65 60 62 71 70 66 62 63 59 54 52 44 42 31 54 48 47 43 41 38 32 33 33
123 130 49 9 23 253 267 228 277 219 178 142 163 104 294 275 256 172 140 148 143 132 128 129 131 127 119 143 173 174 146 120 113 105 110 109 108 111 119 120 122 123 119 117 120 121 115 102 101 108 107 104 99 95 95 96 95 90 84 82 80 78 73 68 65 63 62 66 70 64 62 63 62 59 56 52 50 36 55 53 50 41 37 44 37 34 34
71 59 125 196 157 239 209 234 241 175 172 145 153 70 269 229 174 171 150 149 154 153 147 142 140 145 165 184 170 172 136 132 130 128 129 122 123 127 129 129 127 126 124 124 121 115 113 109 107 107 107 103 101 101 100 97 92 89 85 83 81 83 79 75 69 68 68 67 68 68 66 62 63 66 57 56 48 48 52 56 55 47 44 47 43 36 32
158 141 108 204 195 187 120 226 253 213 173 121 68 170 268 208 178 172 158 156 157 160 154 151 157 165 177 178 175 150 142 139 142 139 137 130 125 122 122 122 124 123 121 116 116 117 115 116 117 112 106 102 104 107 104 98 92 92 93 97 95 87 82 74 71 66 64 71 68 72 75 69 61 59 58 58 49 57 51 51 56 47 48 47 48 38 27
143 97 318 337 309 272 253 237 231 232 163 80 98 191 244 195 170 171 164 157 156 157 158 162 166 182 61 99 124 135 134 124 117 110 117 124 126 126 127 128 126 124 124 125 125 123 121 121 119 116 111 110 108 105 103 97 97 104 108 99 89 85 80 75 71 69 64 70 74 68 69 75 72 63 53 59 55 55 55 48 55 50 46 44 48 42 32
153 189 127 209 239 241 185 244 187 184 110 156 206 235 230 152 165 163 162 155 158 163 168 155 111 121 112 111 119 130 135 131 128 126 117 107 106 118 127 132 128 121 120 115 112 111 118 121 121 119 117 111 108 108 102 103 117 117 101 94 90 85 77 75 71 67 69 65 67 71 66 69 70 63 49 55 57 57 56 57 58 53 44 43 48 44 37
55 41 71 38 220 235 158 128 55 90 135 230 214 211 39 147 152 155 163 157 155 154 140 124 128 122 123 128 132 133 132 128 129 129 122 119 123 127 121 116 123 122 119 120 120 121 121 120 120 120 118 114 112 110 108 120 118 104 98 94 90 85 81 77 73 71 66 65 65 67 69 67 76 71 56 58 52 51 56 59 60 57 45 42 48 47 43
149 147 155 198 217 214 225 156 176 221 191 188 178 142 107 106 140 146 146 150 148 139 137 140 134 131 126 126 130 128 132 129 129 129 127 128 132 134 131 132 133 122 119 120 119 120 121 122 121 125 124 118 118 115 118 127 107 102 95 92 91 85 81 78 75 70 69 66 64 63 69 73 73 73 62 61 57 50 54 60 63 59 44 43 50 49 44
128 188 212 249 262 233 277 53 238 259 302 126 159 111 148 145 154 136 133 136 125 132 133 130 133 133 137 138 142 138 139 133 132 131 134 134 134 132 131 133 131 129 129 129 125 121 121 121 121 123 127 123 123 121 131 120 113 109 104 97 92 89 86 84 81 81 72 68 65 63 54 63 72 69 64 61 66 40 57 56 57 62 47 46 53 50 45
230 248 209 237 357 6 350 19 27 69 42 60 75 96 118 95 136 151 148 143 138 140 139 130 136 135 137 133 137 134 138 135 135 133 132 130 130 128 126 130 133 131 127 127 127 124 121 123 123 126 126 129 128 134 131 119 116 113 108 102 95 93 90 86 86 87 83 72 66 63 64 60 70 65 76 69 75 58 58 58 55 61 53 51 51 48 51
76 283 340 43 4 349 24 49 39 45 34 31 130 105 96 119 113 112 133 141 145 147 146 138 137 136 138 132 135 136 137 135 137 136 133 135 136 137 136 139 133 130 130 127 128 129 131 136 130 130 127 121 126 130 126 123 118 112 106 104 101 97 92 88 82 82 84 84 76 64 62 65 62 60 56 64 72 67 62 61 59 57 52 54 50 48 50
124 230 117 85 49 72 37 44 77 74 54 53 48 79 107 106 99 111 131 131 133 141 138 140 136 138 140 136 141 140 140 139 139 137 137 137 133 133 134 139 134 131 132 133 134 134 136 140 132 129 128 130 133 127 122 121 117 112 109 110 108 104 99 96 90 89 90 87 87 79 62 65 71 65 53 56 68 63 60 56 68 59 63 58 58 58 61
108 57 82 131 83 43 25 34 47 88 122 108 91 92 103 115 115 115 114 135 146 144 140 142 137 137 145 144 143 140 140 139 139 139 137 137 135 136 137 141 139 137 135 134 136 135 139 139 132 128 131 133 133 128 126 125 124 115 113 109 107 103 102 98 92 89 92 92 93 93 90 76 65 73 85 77 84 65 15 264 82 100 87 76 72 95 82
186 198 191 175 132 221 241 3 87 102 98 101 101 98 104 122 123 127 121 98 102 138 144 146 141 137 138 141 142 140 142 142 138 134 133 134 132 130 128 127 128 128 133 134 135 134 138 138 132 131 133 135 134 131 128 130 128 121 119 114 110 109 110 107 109 101 95 92 92 92 94 93 94 73 50 78 74 95 72 37 57 56 75 93 125 109 77
214 199 156 116 102 79 109 162 129 119 139 117 118 125 130 125 128 130 124 119 114 115 110 131 134 136 139 137 132 132 138 142 141 140 140 137 134 134 134 127 128 129 131 129 127 129 137 135 131 133 135 137 137 138 136 136 130 125 124 119 117 120 119 121 123 118 112 98 92 94 95 97 90 94 82 48 54 64 69 58 52 50 54 63 65 73 101
345 132 136 151 136 154 150 119 119 99 102 114 102 101 116 129 130 130 130 135 131 122 110 94 126 130 126 136 136 133 134 136 135 134 130 132 135 135 137 135 135 131 132 133 134 137 138 133 133 134 136 144 145 144 138 136 131 129 131 130 133 137 132 132 125 121 113 113 107 95 83 79 87 92 88 86 50 28 46 65 67 71 74 75 78 82 95
183 125 106 85 99 92 86 98 74 80 70 112 119 128 127 117 114 126 121 116 124 128 122 114 98 125 130 131 132 134 136 136 135 131 130 129 131 134 134 133 137 138 139 135 131 132 133 131 130 134 136 148 146 142 142 139 135 132 135 132 131 136 139 137 134 126 121 121 114 112 109 97 85 90 104 106 100 79 32 58 75 71 60 61 66 67 73
117 97 89 82 78 96 110 83 46 57 88 100 101 96 106 116 120 121 124 125 121 127 128 129 123 113 125 130 129 120 117 121 121 121 123 124 122 125 136 142 140 131 129 129 131 134 133 132 131 131 134 147 149 146 145 142 140 140 142 142 142 146 151 152 140 138 139 131 126 118 107 105 109 101 98 108 112 106 95 69 47 42 45 45 57 74 64
95 113 103 73 67 63 45 127 163 148 96 96 108 109 107 110 113 113 115 121 128 133 135 135 132 127 117 123 128 133 134 132 127 127 126 130 137 139 146 141 136 134 133 130 132 136 133 129 127 128 133 147 146 142 141 139 136 135 138 141 143 152 151 149 151 155 155 147 139 133 125 127 124 119 118 115 119 114 117 114 107 97 72 28 28 50 69
106 69 78 142 175 173 137 102 115 109 108 110 111 108 109 108 108 109 108 109 110 111 115 129 131 129 127 133 127 122 128 137 138 136 132 142 150 146 143 138 137 133 127 126 130 133 129 126 124 123 131 145 144 139 138 137 135 135 139 141 144 151 160 153 151 159 164 161 159 158 163 170 155 131 133 134 121 122 121 123 129 125 84 45 349 18 68
24 42 47 76 111 115 107 107 97 100 99 100 104 110 116 114 112 114 117 120 121 120 118 116 120 131 135 140 140 141 145 141 143 147 146 150 152 144 139 136 133 127 125 126 129 132 129 127 127 126 140 154 149 142 137 133 131 135 137 141 143 150 159 165 163 166 168 159 160 176 171 145 133 131 132 117 116 125 134 139 140 142 133 127 71 52 39
96 94 95 102 108 110 108 105 109 109 112 118 116 114 120 119 118 119 124 127 132 130 132 126 123 120 127 133 145 148 148 152 149 140 139 143 140 136 135 131 118 114 119 128 137 139 135 136 136 137 152 163 153 140 134 130 134 137 140 143 144 151 156 153 141 137 136 144 154 158 153 142 142 138 130 133 147 154 147 153 158 140 122 98 99 129 115
98 101 108 110 107 105 111 116 114 116 117 120 120 120 121 125 125 130 132 134 130 130 139 139 135 132 136 139 140 137 129 125 128 134 135 136 137 138 140 139 137 145 147 148 145 142 138 140 140 144 155 152 152 137 129 128 130 129 128 130 135 142 141 135 133 135 134 131 137 140 142 137 146 142 152 148 145 140 153 156 144 123 120 119 135 160 194
101 105 112 115 120 116 111 112 116 120 120 121 125 133 142 142 144 143 144 146 148 144 140 139 142 140 140 136 131 123 120 122 126 126 127 127 133 139 142 138 133 136 140 143 144 141 138 136 142 154 149 151 148 135 129 131 133 133 136 137 133 139 137 132 126 133 134 137 140 140 146 146 165 168 156 169 175 174 174 153 160 166 170 155 186 234 247
113 102 90 109 111 129 130 135 132 132 134 136 135 126 116 118 124 136 142 141 138 145 145 147 143 137 132 130 127 125 126 127 125 126 129 135 141 145 139 136 137 139 142 150 149 147 144 146 153 151 152 153 149 141 139 139 140 136 142 139 142 142 145 142 136 129 125 132 146 156 163 169 174 181 189 190 188 175 169 177 172 180 203 219 230 261 281
151 167 169 169 156 156 149 151 146 137 129 119 124 125 123 124 124 119 127 135 138 142 146 144 142 133 128 130 131 129 131 126 131 137 143 143 143 137 136 135 137 138 140 137 138 143 146 145 144 154 158 158 153 144 142 138 136 139 143 140 136 138 138 137 137 138 139 145 156 166 168 171 177 192 197 197 192 179 187 196 201 199 218 251 252 246 292
84 108 128 148 154 152 153 144 148 143 136 129 128 134 138 139 141 143 141 145 150 145 134 132 135 133 130 129 135 142 146 147 148 147 146 143 142 142 136 124 116 116 123 142 150 155 154 149 152 151 155 162 155 150 149 145 144 144 150 147 148 151 152 146 149 158 165 160 154 158 171 176 194 199 194 184 197 194 199 211 210 208 217 237 253 269 285
117 120 121 127 149 152 155 151 149 153 148 146 149 144 142 144 136 136 147 147 132 129 132 133 135 140 143 146 144 149 149 146 143 135 131 140 145 141 134 133 134 135 142 155 179 151 147 148 151 150 151 159 157 158 155 150 147 145 149 147 149 151 155 162 167 158 148 145 162 174 177 188 181 181 186 199 204 196 199 211 219 221 223 232 242 267 271
127 125 129 134 136 143 146 144 147 145 147 145 142 140 140 144 149 150 137 132 136 134 133 131 138 150 158 156 146 135 135 143 142 138 138 140 142 138 139 136 140 144 149 154 195 170 148 151 154 146 146 153 156 157 159 147 142 147 147 148 144 148 152 154 161 158 164 172 167 178 182 168 173 184 194 191 203 213 205 215 224 224 228 234 232 235 250
151 136 129 129 133 124 114 117 124 123 120 119 124 133 142 143 146 145 147 139 134 137 136 133 136 135 129 118 123 134 137 133 128 130 136 146 147 140 141 142 149 149 151 180 168 150 169 152 150 143 149 152 158 157 164 157 144 146 152 150 150 153 155 163 168 182 171 174 174 168 173 184 193 202 205 202 208 211 223 237 230 226 235 234 229 225 225
86 84 106 112 110 112 111 110 117 131 139 135 130 128 136 137 139 136 132 130 129 127 118 117 121 126 136 138 136 138 143 142 140 139 145 149 149 145 160 167 167 167 175 165 138 165 151 151 156 150 157 161 154 150 162 163 154 155 164 163 156 163 165 170 182 189 190 179 167 192 192 200 210 210 221 228 215 202 206 220 230 214 211 207 188 209 219
117 117 125 120 116 118 109 112 121 131 131 136 133 134 138 127 128 123 122 121 135 130 125 128 132 138 151 150 150 155 155 149 148 145 145 141 138 129 110 134 174 169 143 143 151 155 165 164 158 163 165 163 150 150 160 169 167 159 166 171 180 175 183 189 190 191 205 180 196 202 211 216 219 223 226 225 233 230 226 231 209 190 222 215 203 198 194
129 118 115 117 123 117 116 114 114 123 132 134 127 130 135 132 129 127 139 143 153 139 134 138 135 144 155 155 153 148 142 145 149 148 141 131 136 143 150 180 205 192 163 153 157 159 162 169 163 163 174 160 156 150 150 165 165 167 173 179 183 182 185 190 199 205 202 204 209 204 213 219 218 219 228 227 227 226 218 215 194 198 204 199 203 202 204
137 130 127 124 121 116 109 114 118 117 122 125 126 130 137 142 143 147 151 143 144 146 139 146 143 144 145 139 132 132 136 145 147 149 155 153 156 156 159 192 187 179 183 162 153 153 163 169 170 164 165 164 156 166 158 158 157 156 171 182 189 190 187 191 198 212 210 205 207 212 209 211 210 214 215 218 209 204 205 203 202 206 221 216 200 202 203
142 140 142 140 131 125 127 133 137 137 129 128 135 140 146 143 136 133 144 152 149 146 141 136 131 126 129 132 136 141 145 148 151 158 162 172 168 165 169 187 180 180 170 167 160 158 168 175 171 173 168 162 168 171 164 167 163 141 157 176 190 192 196 195 202 204 196 201 207 202 201 204 206 202 198 208 208 200 191 194 201 209 211 210 215 213 218
155 148 143 140 139 136 130 127 127 132 134 142 145 140 141 144 146 145 149 150 148 148 145 143 148 150 151 148 142 143 149 155 156 159 150 138 138 312 341 159 166 167 165 166 171 169 176 179 184 168 166 166 165 166 170 172 173 144 140 155 177 187 195 202 208 198 198 207 207 205 205 205 205 202 196 205 212 211 207 207 213 211 211 210 215 213 216
138 137 138 137 136 133 132 133 140 139 128 120 121 133 138 135 139 143 143 145 150 156 152 152 155 157 157 155 156 162 164 167 162 157 152 163 169 216 227 152 156 156 173 170 179 181 184 183 191 170 160 166 168 166 173 178 185 164 154 161 170 174 183 193 204 206 209 210 213 213 208 205 207 205 201 205 201 200 203 207 214 212 204 209 209 212 217
128 133 134 132 139 146 148 137 127 116 118 118 112 109 128 131 132 137 141 141 147 159 165 162 161 165 167 163 149 137 141 151 165 175 168 164 172 191 175 161 168 173 174 173 178 189 197 193 186 180 167 165 169 171 178 185 192 185 170 171 174 172 180 189 187 192 203 210 213 210 209 214 211 212 207 200 203 206 214 212 212 209 207 206 204 206 210
134 134 143 140 137 134 132 130 135 132 130 133 139 142 143 137 137 142 153 153 151 155 158 168 169 168 164 153 147 139 139 144 197 266 119 124 106 139 163 171 168 167 160 178 189 196 196 195 197 193 178 171 167 178 182 184 189 199 198 198 189 184 176 175 188 195 195 207 225 232 229 212 207 211 210 213 212 213 216 210 214 216 214 214 220 218 219
143 142 141 137 133 125 118 124 134 144 148 151 147 144 151 147 146 150 148 146 143 147 154 166 169 158 151 158 167 167 162 159 171 225 221 169 127 128 144 162 175 176 177 188 196 209 202 199 197 196 189 174 174 179 183 186 192 198 206 208 200 198 192 187 189 193 199 202 204 214 236 250 239 226 218 214 218 216 213 210 215 218 213 210 216 215 215
152 150 142 126 124 129 135 138 134 141 155 149 141 157 157 140 124 125 136 134 136 148 164 175 171 172 173 175 179 186 192 182 165 184 192 171 168 165 172 166 164 167 175 181 198 216 210 211 209 208 195 174 182 188 193 195 198 200 208 209 210 205 199 197 203 195 193 204 205 205 208 212 220 219 222 220 222 221 214 218 224 221 219 216 220 223 222
148 127 124 135 139 144 148 144 153 166 164 157 161 156 143 130 135 167 162 162 165 161 164 173 183 182 178 178 189 195 185 199 214 128 145 175 183 182 164 160 168 178 183 190 200 211 219 216 223 222 211 197 194 193 200 202 205 205 211 216 219 221 216 212 209 201 200 206 208 213 216 218 220 222 222 225 226 223 218 218 220 227 229 226 222 223 223
146 156 168 163 161 165 164 165 170 163 161 173 157 141 146 161 176 173 170 162 147 153 180 199 209 201 187 192 194 194 198 202 200 177 161 178 183 178 173 176 175 182 192 198 204 209 202 199 206 210 213 211 209 205 202 205 209 211 213 217 219 221 226 228 222 220 214 207 208 213 218 223 221 223 222 222 223 223 221 221 223 225 222 222 221 222 223
168 168 157 154 157 164 176 166 142 153 159 151 142 151 168 174 160 158 165 173 169 176 176 169 209 232 203 194 190 203 200 198 198 200 194 176 173 184 179 170 175 189 196 210 219 214 208 205 201 201 203 209 214 216 219 215 212 215 219 222 226 227 224 224 223 228 233 227 216 218 222 223 218 218 224 223 222 224 225 222 220 220 217 218 218 218 220